[[{"header":{"parameterUnit":"m.s-1","parameterCategory":1,"la1":30.2992,"la2":30.254,"lo1":-89.0895,"lo2":-89.0443,"dy":0.0025,"dx":0.0025,"nx":19,"ny":19,"refTime":"2026-05-11T21:00:00:Z","depth":0,"parameterNumber":2,"parameterNumberName":"U-component_of_WINDS"},"data":[0,0,0,-0.9718,-0.9719,-0.9766,-0.9766,-0.9841,-0.9842,0,0,0,0,0,0,0,0,0,0,0,-0.971,-0.9711,-0.9718,-0.9719,-0.9766,-0.9766,-0.9841,-0.9842,0,0,0,0,0,0,0,0,0,0,0,-0.971,-0.9711,-0.9712,-0.9719,-0.9766,-0.9766,-0.984,-0.98,0,0,0,0,0,0,0,0,0,0,-0.9752,-0.9751,-0.9711,-0.9712,-0.972,-0.9766,-0.9766,-0.9798,-0.9803,-0.9825,0,-0.9844,0,-0.9844,-0.9847,-0.9848,0,0,0,-0.9715,-0.9747,-0.9754,-0.9712,-0.972,-0.9766,-0.9744,-0.9801,-0.9806,-0.9831,-0.9845,-0.9848,-0.9845,-0.9848,-0.9848,-0.9985,-0.9986,0,0,-0.9712,-0.9723,-0.975,-0.9758,-0.9749,-0.9742,-0.9745,-0.9804,-0.9821,-0.9845,-0.9849,-0.9846,-0.9848,-0.9849,-0.9984,-0.9985,0,0,0,-0.9708,-0.9721,-0.9726,-0.9755,-0.9762,-0.9744,-0.9747,-0.9818,-0.9818,-0.985,-0.9847,-0.9849,-0.985,-0.9983,-0.9985,-1.0037,0,0,0,-0.9706,-0.9718,-0.9725,-0.9732,-0.9761,-0.979,-0.976,-0.9814,-0.9821,-0.9847,-0.9849,-0.9851,-0.9982,-0.9984,-1.0034,-1.0061,0,0,0,-0.9705,-0.9718,-0.9727,-0.9733,-0.9753,-0.9789,-0.9793,-0.9816,-0.982,-0.9848,-0.9851,-0.9982,-0.9984,-1.0031,-1.0056,-1.0102,0,0,0,-0.9708,-0.9773,-0.9728,-0.98,-0.9753,-0.982,-0.9792,-0.9842,-0.9872,-0.9849,-0.9983,-0.9985,-1.003,-1.0053,-1.0098,-1.0143,-1.0162,0,0,-0.9797,-0.9784,-0.9826,-0.9787,-0.9865,-0.9812,-0.9898,-0.9917,-0.991,-0.9961,-0.9964,-1.0035,-1.0056,-1.0101,-1.0262,-1.0277,0,0,0,-0.9858,-0.9888,-0.9906,-0.9935,-0.9949,-0.9965,-0.9968,-0.9975,-1.0017,-0.9938,-1.0062,-1.0074,-1.01,-1.0122,-1.0135,-1.0158,-0.9994,-0.9994,-0.9994,-1.0,-0.9987,-1.0056,-1.0049,-1.0077,-1.0079,-1.0102,-1.0112,-1.0091,-1.0121,-1.0137,-1.0236,-1.0261,-1.027,-1.0294,-1.0157,-1.0158,-1.0158,-1.0158,-1.0131,-1.0173,-1.0142,-1.0198,-1.0185,-1.0232,-1.0238,-1.0221,-1.0265,-1.0222,-1.0245,-1.0201,-1.0287,-1.0308,-1.0162,-1.0161,-1.0161,-1.016,-1.016,-1.0225,-1.0242,-1.0248,-1.0288,-1.0321,-1.0312,-1.0355,-1.0341,-1.0328,-1.035,-1.0367,-1.0366,-1.0365,-1.0358,-1.0359,-1.0359,-1.0359,-1.036,-1.036,-1.0321,-1.0325,-1.0363,-1.0383,-1.04,-1.042,-1.0424,-1.0441,-1.0456,-1.0443,-1.0443,-1.0421,-1.0297,-1.0267,-1.0365,-1.0364,-1.0364,-1.0363,-1.0363,-1.0462,-1.0428,-1.0486,-1.0502,-1.0526,-1.056,-1.0541,-1.0576,-1.0588,-1.0611,-1.0583,-1.0493,-1.048,-1.047,-1.0446,-1.0584,-1.0584,-1.0584,-1.0584,-1.0544,-1.0535,-1.0591,-1.0619,-1.0645,-1.0633,-1.0701,-1.0705,-1.0703,-1.071,-1.0688,-1.0653,-1.0643,-1.0637,-1.0623,-1.06,-1.0775,-1.0775,-1.0775,-1.0631,-1.0624,-1.0684,-1.068,-1.0697,-1.0713,-1.0778,-1.0813,-1.0804,-1.0782,-1.0716,-1.0708,-1.0652,-1.0635,-1.0614,-1.0593,-1.0551,0,0]},{"header":{"parameterUnit":"m.s-1","parameterCategory":1,"la1":30.2992,"la2":30.254,"lo1":-89.0895,"lo2":-89.0443,"dy":0.0025,"dx":0.0025,"nx":19,"ny":19,"refTime":"2026-05-11T21:00:00:Z","depth":0,"parameterNumber":3,"parameterNumberName":"V-component_of_WINDS"},"data":[0,0,0,-0.5558,-0.5558,-0.5525,-0.5525,-0.5496,-0.5496,0,0,0,0,0,0,0,0,0,0,0,-0.5576,-0.5577,-0.5558,-0.5558,-0.5525,-0.5525,-0.5496,-0.5496,0,0,0,0,0,0,0,0,0,0,0,-0.5576,-0.5576,-0.5577,-0.5558,-0.5525,-0.5525,-0.5496,-0.5516,0,0,0,0,0,0,0,0,0,0,-0.5545,-0.5571,-0.5576,-0.5577,-0.5557,-0.5525,-0.5525,-0.5517,-0.5515,-0.5516,0,-0.5521,0,-0.5508,-0.5495,-0.5495,0,0,0,-0.5551,-0.5572,-0.5556,-0.5577,-0.5557,-0.5525,-0.5538,-0.5515,-0.5513,-0.5514,-0.552,-0.5519,-0.5507,-0.5495,-0.5495,-0.5528,-0.5528,0,0,-0.5553,-0.5575,-0.5557,-0.5555,-0.5562,-0.5539,-0.5537,-0.5514,-0.5522,-0.552,-0.5518,-0.5507,-0.5494,-0.5494,-0.5527,-0.5528,0,0,0,-0.5563,-0.5577,-0.556,-0.5556,-0.555,-0.5538,-0.5536,-0.5523,-0.5516,-0.5517,-0.5507,-0.5494,-0.5494,-0.5527,-0.5527,-0.5572,0,0,0,-0.5563,-0.5582,-0.5561,-0.5575,-0.555,-0.5536,-0.5546,-0.5518,-0.5514,-0.5507,-0.5494,-0.5494,-0.5526,-0.5527,-0.557,-0.559,0,0,0,-0.5576,-0.5583,-0.5582,-0.5576,-0.5563,-0.5536,-0.5527,-0.5516,-0.5508,-0.5495,-0.5494,-0.5526,-0.5527,-0.5568,-0.5587,-0.5606,0,0,0,-0.5595,-0.5622,-0.5583,-0.5608,-0.5563,-0.5564,-0.5527,-0.5527,-0.552,-0.5494,-0.5526,-0.5527,-0.5567,-0.5584,-0.5604,-0.5627,-0.5638,0,0,-0.5641,-0.5628,-0.5641,-0.5605,-0.5619,-0.5567,-0.5587,-0.556,-0.5538,-0.5532,-0.5533,-0.5571,-0.5586,-0.5605,-0.5693,-0.5702,0,0,0,-0.5664,-0.5674,-0.5672,-0.5668,-0.5648,-0.5632,-0.56,-0.559,-0.5584,-0.554,-0.5582,-0.559,-0.56,-0.561,-0.5618,-0.5626,-0.5533,-0.5532,-0.5532,-0.5761,-0.5732,-0.5752,-0.5719,-0.5714,-0.568,-0.5674,-0.5654,-0.5626,-0.5636,-0.5635,-0.5691,-0.5704,-0.571,-0.5718,-0.5643,-0.5644,-0.5644,-0.5644,-0.5827,-0.5837,-0.5797,-0.5803,-0.5771,-0.5775,-0.5743,-0.5722,-0.5721,-0.569,-0.5698,-0.5668,-0.5721,-0.5726,-0.5647,-0.5646,-0.5646,-0.5646,-0.5646,-0.5889,-0.5888,-0.5875,-0.5865,-0.5861,-0.5825,-0.5825,-0.5796,-0.5768,-0.5776,-0.5771,-0.577,-0.5766,-0.5775,-0.5776,-0.5776,-0.5776,-0.5776,-0.5776,-0.5958,-0.5942,-0.5947,-0.5928,-0.592,-0.5907,-0.5872,-0.5864,-0.5848,-0.5826,-0.5826,-0.5797,-0.5731,-0.5716,-0.5779,-0.5779,-0.5778,-0.5778,-0.5778,-0.6038,-0.6015,-0.6022,-0.6015,-0.599,-0.5987,-0.5949,-0.5934,-0.5923,-0.5924,-0.5892,-0.5849,-0.5833,-0.5827,-0.5814,-0.5899,-0.5899,-0.5899,-0.5899,-0.6091,-0.608,-0.608,-0.6071,-0.6058,-0.6024,-0.6032,-0.6005,-0.5973,-0.5964,-0.5947,-0.5927,-0.5922,-0.5909,-0.5901,-0.5889,-0.5991,-0.5991,-0.5991,-0.6138,-0.6124,-0.6138,-0.6107,-0.6084,-0.6065,-0.6072,-0.6062,-0.6021,-0.5994,-0.5956,-0.5952,-0.592,-0.5911,-0.5885,-0.5873,-0.5849,0,0]}]]